Time,TemperatureF,DewpointF,PressureIn,WindDirection,WindDirectionDegrees,WindSpeedMPH,WindSpeedGustMPH,Humidity,HourlyPrecipIn,Conditions,Clouds,dailyrainin,SoftwareType,DateUTC
2013-07-20 00:22:00,72.0,-99.9,-100.00,North,-999,-999.0,-999.0,-999,0.00,,,0.38,,2013-07-20 05:22:00,
2013-07-20 00:32:00,72.0,-99.9,-100.00,North,-999,-999.0,-999.0,-999,0.00,,,0.38,,2013-07-20 05:32:00,
2013-07-20 01:22:00,72.0,-99.9,-100.00,North,-999,-999.0,-999.0,-999,0.00,,,0.38,,2013-07-20 06:22:00,
2013-07-20 01:32:00,72.0,-99.9,-100.00,North,-999,-999.0,-999.0,-999,0.00,,,0.38,,2013-07-20 06:32:00,
2013-07-20 01:43:00,72.0,-99.9,-100.00,North,-999,-999.0,-999.0,-999,0.00,,,0.38,,2013-07-20 06:43:00,
2013-07-20 02:22:00,71.0,-99.9,-100.00,North,-999,-999.0,-999.0,-999,0.00,,,0.38,,2013-07-20 07:22:00,
2013-07-20 02:33:00,71.0,-99.9,-100.00,North,-999,-999.0,-999.0,-999,0.00,,,0.38,,2013-07-20 07:33:00,
2013-07-20 02:44:00,71.0,-99.9,-100.00,North,-999,-999.0,-999.0,-999,0.00,,,0.38,,2013-07-20 07:44:00,
2013-07-20 03:22:00,71.0,-99.9,-100.00,North,-999,-999.0,-999.0,-999,0.00,,,0.38,,2013-07-20 08:22:00,
2013-07-20 03:32:00,71.0,-99.9,-100.00,North,-999,-999.0,-999.0,-999,0.00,,,0.38,,2013-07-20 08:32:00,
2013-07-20 03:44:00,71.0,-99.9,-100.00,North,-999,-999.0,-999.0,-999,0.00,,,0.38,,2013-07-20 08:44:00,
2013-07-20 04:33:00,70.0,-99.9,-100.00,North,-999,-999.0,-999.0,-999,0.00,,,0.38,,2013-07-20 09:33:00,
2013-07-20 04:43:00,70.0,-99.9,-100.00,North,-999,-999.0,-999.0,-999,0.00,,,0.38,,2013-07-20 09:43:00,
2013-07-20 05:33:00,70.0,-99.9,-100.00,North,-999,-999.0,-999.0,-999,0.00,,,0.38,,2013-07-20 10:33:00,
2013-07-20 05:42:00,70.0,-99.9,-100.00,North,-999,-999.0,-999.0,-999,0.00,,,0.38,,2013-07-20 10:42:00,
2013-07-20 06:32:00,69.0,-99.9,-100.00,North,-999,-999.0,-999.0,-999,0.00,,,0.38,,2013-07-20 11:32:00,
2013-07-20 06:43:00,69.0,-99.9,-100.00,North,-999,-999.0,-999.0,-999,0.00,,,0.38,,2013-07-20 11:43:00,
2013-07-20 07:22:00,69.0,-99.9,-100.00,North,-999,-999.0,-999.0,-999,0.00,,,0.38,,2013-07-20 12:22:00,
2013-07-20 07:32:00,69.0,-99.9,-100.00,North,-999,-999.0,-999.0,-999,0.00,,,0.38,,2013-07-20 12:32:00,
2013-07-20 08:32:00,71.0,-99.9,-100.00,North,-999,-999.0,-999.0,-999,0.00,,,0.38,,2013-07-20 13:32:00,
2013-07-20 08:43:00,71.0,-99.9,-100.00,North,-999,-999.0,-999.0,-999,0.00,,,0.38,,2013-07-20 13:43:00,
2013-07-20 09:22:00,73.0,-99.9,-100.00,North,-999,-999.0,-999.0,-999,0.00,,,0.38,,2013-07-20 14:22:00,
2013-07-20 09:32:00,73.0,-99.9,-100.00,North,-999,-999.0,-999.0,-999,0.00,,,0.38,,2013-07-20 14:32:00,
2013-07-20 09:43:00,73.0,-99.9,-100.00,North,-999,-999.0,-999.0,-999,0.00,,,0.38,,2013-07-20 14:43:00,
2013-07-20 10:23:00,81.0,-99.9,-100.00,North,-999,-999.0,-999.0,-999,0.00,,,0.38,,2013-07-20 15:23:00,
2013-07-20 10:33:00,81.0,-99.9,-100.00,North,-999,-999.0,-999.0,-999,0.00,,,0.38,,2013-07-20 15:33:00,
2013-07-20 10:44:00,81.0,-99.9,-100.00,North,-999,-999.0,-999.0,-999,0.00,,,0.38,,2013-07-20 15:44:00,
2013-07-20 11:22:00,84.0,-99.9,-100.00,North,-999,-999.0,-999.0,-999,0.00,,,-99.99,,2013-07-20 16:22:00,
2013-07-20 11:32:00,84.0,-99.9,-100.00,North,-999,-999.0,-999.0,-999,0.00,,,-99.99,,2013-07-20 16:32:00,
2013-07-20 11:44:00,84.0,-99.9,-100.00,North,-999,-999.0,-999.0,-999,0.00,,,-99.99,,2013-07-20 16:44:00,
2013-07-20 12:22:00,87.0,-99.9,-100.00,North,-999,-999.0,-999.0,-999,0.00,,,0.38,,2013-07-20 17:22:00,
2013-07-20 12:32:00,87.0,-99.9,-100.00,North,-999,-999.0,-999.0,-999,0.00,,,0.38,,2013-07-20 17:32:00,
2013-07-20 12:43:00,87.0,-99.9,-100.00,North,-999,-999.0,-999.0,-999,0.00,,,0.38,,2013-07-20 17:43:00,
2013-07-20 12:45:00,89.0,-99.9,-100.00,North,-999,-999.0,-999.0,-999,0.00,,,0.38,,2013-07-20 17:45:00,
2013-07-20 13:38:00,89.0,-99.9,-100.00,North,-999,-999.0,-999.0,-999,0.00,,,0.38,,2013-07-20 18:38:00,
2013-07-20 13:45:00,92.0,-99.9,-100.00,North,-999,-999.0,-999.0,-999,0.00,,,0.38,,2013-07-20 18:45:00,
2013-07-20 14:36:00,92.0,-99.9,-100.00,North,-999,-999.0,-999.0,-999,0.00,,,0.38,,2013-07-20 19:36:00,
2013-07-20 14:45:00,94.0,-99.9,-100.00,North,-999,-999.0,-999.0,-999,0.00,,,0.38,,2013-07-20 19:45:00,
2013-07-20 15:25:00,94.0,-99.9,-100.00,North,-999,-999.0,-999.0,-999,0.00,,,0.38,,2013-07-20 20:25:00,
2013-07-20 15:37:00,94.0,-99.9,-100.00,North,-999,-999.0,-999.0,-999,0.00,,,0.38,,2013-07-20 20:37:00,
2013-07-20 15:45:00,94.0,-99.9,-100.00,North,-999,-999.0,-999.0,-999,0.00,,,0.38,,2013-07-20 20:45:00,
2013-07-20 16:36:00,94.0,-99.9,-100.00,North,-999,-999.0,-999.0,-999,0.00,,,0.38,,2013-07-20 21:36:00,
2013-07-20 16:45:00,83.0,-99.9,-100.00,North,-999,-999.0,-999.0,-999,0.00,,,0.20,,2013-07-20 21:45:00,
2013-07-20 17:29:00,83.0,-99.9,-100.00,North,-999,-999.0,-999.0,-999,0.00,,,0.20,,2013-07-20 22:29:00,
2013-07-20 17:40:00,83.0,-99.9,-100.00,North,-999,-999.0,-999.0,-999,0.00,,,0.20,,2013-07-20 22:40:00,
2013-07-20 17:45:00,81.0,-99.9,-100.00,North,-999,-999.0,-999.0,-999,0.00,,,0.02,,2013-07-20 22:45:00,
2013-07-20 18:41:00,81.0,-99.9,-100.00,North,-999,-999.0,-999.0,-999,0.00,,,0.02,,2013-07-20 23:41:00,
2013-07-20 18:45:00,79.0,-99.9,-100.00,North,-999,-999.0,-999.0,-999,0.00,,,0.02,,2013-07-20 23:45:00,
2013-07-20 19:24:00,79.0,-99.9,-100.00,North,-999,-999.0,-999.0,-999,0.00,,,0.02,,2013-07-21 00:24:00,
2013-07-20 20:45:00,76.0,-99.9,-100.00,North,-999,-999.0,-999.0,-999,-99.99,,,0.00,,2013-07-21 01:45:00,
2013-07-20 21:29:00,76.0,-99.9,-100.00,North,-999,-999.0,-999.0,-999,-99.99,,,0.00,,2013-07-21 02:29:00,
2013-07-20 21:45:00,76.0,-99.9,-100.00,North,-999,-999.0,-999.0,-999,0.00,,,0.00,,2013-07-21 02:45:00,
2013-07-20 22:27:00,76.0,-99.9,-100.00,North,-999,-999.0,-999.0,-999,0.00,,,0.00,,2013-07-21 03:27:00,
2013-07-20 22:38:00,76.0,-99.9,-100.00,North,-999,-999.0,-999.0,-999,0.00,,,0.00,,2013-07-21 03:38:00,
2013-07-20 23:33:00,74.0,-99.9,-100.00,North,-999,-999.0,-999.0,-999,0.00,,,0.00,,2013-07-21 04:33:00,
2013-07-20 23:43:00,74.0,-99.9,-100.00,North,-999,-999.0,-999.0,-999,0.00,,,0.00,,2013-07-21 04:43:00,